Tracking 19477 objects as of 16-Jan-2019
HD Live streaming from Space Station
objects crossing your sky now

OPS 7869 (DMSP 4B F1)

Track OPS 7869 (DMSP 4B F1) now!
10-day predictions
OPS 7869 (DMSP 4B F1) is classified as:


NORAD ID: 3266
Int'l Code: 1968-042A
Perigee: 809.8 km
Apogee: 887.3 km
Inclination: 98.9 °
Period: 101.7 minutes
Semi major axis: 7219 km
RCS: 0.6432 m2 (medium)
Launch date: May 23, 1968
Source: United States (US)
Launch site: AIR FORCE WESTERN TEST RANGE (AFWTR)
aabbcc
Your satellite tracking list
Your tracking list is empty




NASA's NSSDC Master Catalog

Two Line Element Set (TLE):
1  3266U 68042A   19016.20891184 -.00000019  00000-0  12674-4 0  9992
2  3266  98.8596 239.8220 0053673 133.7589 226.8045 14.15251006530325
Source of the keplerian elements: AFSPC